period_start,C,m1,H,J0,J1,J2,J3,J4,J5,JA,JB,JC,JD,JJ,JK,JN,#
2013-09-24 00:00:17,0.01,0.13,0.00,25.76,30.10,32.31,6.08,29.42,1013.24,2038.06,3424.00,3304.02,3578.04,349.92,319.83,31.82,0000 0000 0000 0000 000000
2013-09-24 00:01:17,0.00,0.13,0.00,25.75,30.10,32.33,6.06,29.46,1013.24,2038.07,3423.99,3304.01,3578.02,349.86,320.05,31.83,0000 0000 0000 0000 000000
2013-09-24 00:02:17,0.01,0.13,0.00,25.76,30.10,32.33,5.97,29.21,1013.21,2038.08,3423.99,3304.02,3578.01,350.46,320.21,31.83,0000 0000 0000 0000 000000
2013-09-24 00:03:17,0.00,0.13,0.00,25.75,30.10,32.32,6.05,29.25,1013.20,2038.07,3423.98,3304.01,3578.00,350.85,320.68,31.84,0000 0000 0000 0000 000000
2013-09-24 00:04:17,0.00,0.13,0.00,25.76,30.11,32.35,6.00,29.33,1013.23,2038.07,3423.96,3304.00,3578.00,350.51,320.45,31.84,0000 0000 0000 0000 000000
2013-09-24 00:05:18,0.00,0.13,0.00,25.77,30.12,32.35,5.98,29.33,1013.22,2038.05,3423.97,3304.00,3578.00,350.19,320.06,31.85,0000 0000 0000 0000 000000
2013-09-24 00:06:18,-0.01,0.13,0.00,25.79,30.12,32.34,5.73,29.29,1013.21,2038.03,3423.96,3304.00,3578.00,348.87,319.27,31.86,0000 0000 0000 0000 000000
2013-09-24 00:07:19,-0.02,0.13,0.00,25.83,30.12,32.34,5.82,29.29,1013.21,2038.02,3423.93,3304.00,3578.00,350.53,320.32,31.86,0000 0000 0000 0000 000000
2013-09-24 00:08:19,0.00,0.13,0.00,25.85,30.12,32.34,5.78,29.33,1013.20,2038.01,3423.88,3304.00,3578.00,349.53,319.37,31.87,0000 0000 0000 0000 000000
2013-09-24 00:09:19,0.00,0.13,0.00,25.87,30.12,32.33,5.75,29.21,1013.20,2038.01,3423.76,3304.00,3578.00,349.54,319.35,31.87,0000 0000 0000 0000 000000
2013-09-24 00:10:19,0.01,0.13,0.00,25.89,30.12,32.31,5.91,29.29,1013.21,2038.02,3423.67,3304.00,3578.00,349.69,319.48,31.88,0000 0000 0000 0000 000000
2013-09-24 00:11:19,0.01,0.13,0.00,25.89,30.12,32.34,5.95,29.54,1013.20,2038.02,3423.43,3304.00,3577.99,349.53,319.06,31.89,0000 0000 0000 0000 000000
2013-09-24 00:12:20,0.03,0.13,0.00,25.90,30.13,32.34,5.98,29.42,1013.20,2038.02,3423.22,3303.99,3577.97,350.57,320.27,31.89,0000 0000 0000 0000 000000
2013-09-24 00:13:20,0.03,0.13,0.00,25.93,30.14,32.33,5.98,29.29,1013.20,2038.02,3423.13,3303.99,3577.97,349.99,319.61,31.90,0000 0000 0000 0000 000000
2013-09-24 00:14:20,0.00,0.13,0.00,25.95,30.15,32.32,5.83,29.46,1013.20,2038.02,3423.10,3303.99,3577.97,350.47,319.78,31.90,0000 0000 0000 0000 000000
2013-09-24 00:15:21,0.01,0.13,0.00,25.96,30.15,32.33,5.80,29.21,1013.20,2038.01,3423.03,3303.97,3577.90,349.34,319.08,31.91,0000 0000 0000 0000 000000
2013-09-24 00:16:21,0.01,0.13,0.00,25.94,30.15,32.35,5.95,29.29,1013.20,2038.02,3423.01,3303.97,3577.94,350.72,320.36,31.92,0000 0000 0000 0000 000000
2013-09-24 00:17:21,0.00,0.13,0.00,25.94,30.15,32.37,5.93,29.46,1013.20,2038.01,3423.00,3303.94,3577.86,350.44,319.73,31.92,0000 0000 0000 0000 000000
2013-09-24 00:18:21,0.02,0.13,0.00,25.95,30.15,32.36,5.88,29.38,1013.20,2038.00,3423.00,3303.82,3577.63,349.79,319.58,31.93,0000 0000 0000 0000 000000
2013-09-24 00:19:22,0.03,0.13,0.00,25.97,30.15,32.37,5.92,29.25,1013.20,2038.00,3423.01,3303.89,3577.58,350.08,319.84,31.93,0000 0000 0000 0000 000000
2013-09-24 00:20:22,-0.01,0.14,0.00,25.97,30.15,32.37,5.85,29.17,1013.20,2038.00,3423.00,3303.94,3577.65,349.96,319.63,31.94,0000 0000 0000 0000 000000
2013-09-24 00:21:22,-0.01,0.13,0.00,25.97,30.15,32.35,5.85,29.13,1013.20,2038.00,3423.00,3303.90,3577.56,349.73,319.65,31.94,0000 0000 0000 0000 000000
2013-09-24 00:22:23,0.02,0.14,0.00,25.97,30.16,32.38,5.84,29.08,1013.20,2038.00,3422.99,3303.73,3577.29,349.62,319.33,31.95,0000 0000 0000 0000 000000
2013-09-24 00:23:23,0.04,0.14,0.00,25.96,30.17,32.38,5.75,29.17,1013.20,2038.00,3422.98,3303.75,3577.23,349.07,318.83,31.96,0000 0000 0000 0000 000000
2013-09-24 00:24:23,0.02,0.14,0.00,25.96,30.17,32.38,5.90,29.38,1013.20,2038.00,3422.98,3303.69,3577.19,349.61,318.88,31.96,0000 0000 0000 0000 000000
2013-09-24 00:25:23,0.02,0.14,0.00,25.97,30.17,32.38,5.87,29.33,1013.20,2038.00,3422.98,3303.57,3577.16,348.87,318.64,31.97,0000 0000 0000 0000 000000
2013-09-24 00:26:24,0.01,0.14,0.00,25.97,30.17,32.37,5.87,29.38,1013.20,2038.00,3422.95,3303.49,3577.13,350.30,319.94,31.97,0000 0000 0000 0000 000000
2013-09-24 00:27:24,0.03,0.14,0.00,25.98,30.17,32.38,6.15,29.46,1013.20,2038.00,3422.92,3303.32,3577.08,351.08,320.65,31.98,0000 0000 0000 0000 000000
2013-09-24 00:28:24,0.03,0.14,0.00,25.98,30.17,32.39,5.94,29.25,1013.20,2038.00,3422.91,3303.22,3577.06,349.69,319.51,31.99,0000 0000 0000 0000 000000
2013-09-24 00:29:25,0.01,0.14,0.00,25.99,30.17,32.41,5.90,29.33,1013.20,2038.00,3422.87,3303.12,3577.02,349.45,319.30,31.99,0000 0000 0000 0000 000000
2013-09-24 00:30:25,0.02,0.14,0.00,25.99,30.18,32.39,5.98,29.38,1013.20,2038.00,3422.76,3303.07,3577.01,350.35,319.96,32.00,0000 0000 0000 0000 000000
2013-09-24 00:31:25,0.01,0.14,0.00,26.00,30.18,32.38,5.85,29.29,1013.17,2038.00,3422.80,3303.08,3577.00,349.63,319.47,32.00,0000 0000 0000 0000 000000
2013-09-24 00:32:25,0.00,0.14,0.00,25.99,30.19,32.36,5.92,29.17,1013.17,2038.00,3422.80,3303.09,3577.00,350.13,319.60,32.01,0000 0000 0000 0000 000000
2013-09-24 00:33:26,0.01,0.14,0.00,26.00,30.20,32.38,6.02,29.42,1013.12,2038.00,3422.69,3303.07,3577.00,350.63,320.20,32.01,0000 0000 0000 0000 000000
2013-09-24 00:34:26,0.01,0.14,0.00,25.99,30.20,32.38,6.05,29.38,1013.05,2038.00,3422.62,3303.03,3577.01,350.68,320.16,32.02,0000 0000 0000 0000 000000
2013-09-24 00:35:26,0.02,0.14,0.00,26.00,30.20,32.38,5.99,29.46,1012.97,2038.00,3422.54,3303.02,3577.01,350.42,319.95,32.03,0000 0000 0000 0000 000000
2013-09-24 00:36:26,0.01,0.14,0.00,25.98,30.20,32.37,6.00,29.25,1012.88,2038.00,3422.42,3303.03,3577.01,350.96,320.43,32.03,0000 0000 0000 0000 000000
2013-09-24 00:37:27,0.01,0.14,0.00,25.94,30.20,32.40,6.06,29.38,1012.81,2038.00,3422.23,3303.02,3577.00,350.73,320.07,32.04,0000 0000 0000 0000 000000
2013-09-24 00:38:27,0.02,0.14,0.00,25.94,30.20,32.40,6.04,29.33,1012.79,2038.00,3422.11,3303.00,3577.00,350.82,320.27,32.04,0000 0000 0000 0000 000000
2013-09-24 00:39:27,0.01,0.14,0.00,25.93,30.20,32.38,6.07,29.46,1012.76,2038.00,3422.07,3303.00,3577.00,351.09,320.78,32.05,0000 0000 0000 0000 000000
2013-09-24 00:40:27,0.00,0.14,0.00,25.91,30.21,32.39,5.97,29.33,1012.74,2038.00,3422.03,3303.00,3577.00,350.00,319.89,32.06,0000 0000 0000 0000 000000
2013-09-24 00:41:28,0.00,0.14,0.00,25.93,30.21,32.40,5.88,29.92,1012.73,2038.00,3422.01,3303.00,3576.98,349.36,318.99,32.06,0000 0000 0000 0000 000000
2013-09-24 00:42:28,0.00,0.14,0.00,25.97,30.22,32.42,5.88,29.63,1012.73,2038.00,3422.00,3303.00,3576.98,349.73,319.13,32.07,0000 0000 0000 0000 000000
2013-09-24 00:43:29,0.00,0.14,0.00,25.98,30.22,32.42,6.00,29.58,1012.71,2038.00,3422.00,3303.00,3576.90,350.22,319.70,32.07,0000 0000 0000 0000 000000
2013-09-24 00:44:29,0.00,0.14,0.00,26.00,30.22,32.42,5.85,29.67,1012.72,2038.00,3422.00,3303.00,3576.88,349.95,319.45,32.08,0000 0000 0000 0000 000000
2013-09-24 00:45:29,0.00,0.14,0.00,25.99,30.22,32.40,5.84,29.21,1012.73,2038.00,3422.00,3303.00,3576.91,349.57,319.11,32.09,0000 0000 0000 0000 000000
2013-09-24 00:46:29,0.00,0.14,0.00,25.96,30.22,32.41,5.87,29.38,1012.72,2038.00,3422.00,3302.98,3576.91,349.88,319.58,32.09,0000 0000 0000 0000 000000
2013-09-24 00:47:29,0.00,0.14,0.00,25.95,30.22,32.44,6.03,29.46,1012.72,2038.00,3422.00,3302.99,3576.91,350.88,320.08,32.10,0000 0000 0000 0000 000000
2013-09-24 00:48:30,0.00,0.14,0.00,25.93,30.22,32.44,5.98,29.50,1012.73,2038.00,3422.00,3302.99,3576.91,349.74,319.36,32.10,0000 0000 0000 0000 000000
2013-09-24 00:49:30,0.00,0.14,0.00,25.93,30.23,32.45,6.08,29.71,1012.72,2038.00,3422.00,3302.99,3576.92,350.42,319.94,32.11,0000 0000 0000 0000 000000
2013-09-24 00:50:30,0.00,0.14,0.00,25.95,30.24,32.44,5.90,29.21,1012.71,2038.00,3422.00,3302.98,3576.90,350.47,320.16,32.11,0000 0000 0000 0000 000000
2013-09-24 00:51:31,0.01,0.14,0.00,25.95,30.25,32.45,5.77,29.21,1012.73,2038.00,3422.00,3302.98,3576.80,349.42,318.83,32.12,0000 0000 0000 0000 000000
2013-09-24 00:52:31,0.01,0.14,0.00,25.94,30.25,32.46,5.78,29.25,1012.71,2038.00,3421.99,3302.96,3576.68,348.89,318.54,32.13,0000 0000 0000 0000 000000
2013-09-24 00:53:31,0.01,0.14,0.00,25.96,30.25,32.45,6.02,29.42,1012.71,2037.99,3421.98,3302.94,3576.57,350.19,319.70,32.13,0000 0000 0000 0000 000000
2013-09-24 00:54:31,0.02,0.14,0.00,25.97,30.25,32.44,5.95,29.33,1012.71,2037.99,3421.95,3302.89,3576.36,349.90,319.43,32.14,0000 0000 0000 0000 000000
2013-09-24 00:55:32,0.02,0.14,0.00,25.96,30.25,32.45,5.84,29.54,1012.71,2037.98,3421.87,3302.88,3576.23,349.31,319.20,32.14,0000 0000 0000 0000 000000
2013-09-24 00:56:32,0.01,0.14,0.00,25.97,30.25,32.45,5.89,29.38,1012.71,2037.99,3421.82,3302.79,3576.15,350.30,319.79,32.15,0000 0000 0000 0000 000000
2013-09-24 00:57:32,0.05,0.14,0.00,25.97,30.25,32.46,5.93,29.42,1012.71,2037.99,3421.58,3302.67,3576.05,349.96,319.63,32.16,0000 0000 0000 0000 000000
2013-09-24 00:58:33,0.06,0.14,0.00,25.97,30.26,32.47,5.93,29.50,1012.71,2037.98,3421.53,3302.54,3576.02,349.95,319.47,32.16,0000 0000 0000 0000 000000
2013-09-24 00:59:33,0.02,0.14,0.00,25.97,30.27,32.47,5.82,29.21,1012.71,2037.98,3421.39,3302.46,3576.02,349.93,319.46,32.17,0000 0000 0000 0000 000000
2013-09-24 01:00:33,0.02,0.14,0.00,25.97,30.27,32.48,5.80,29.33,1012.71,2037.98,3421.28,3302.31,3576.00,350.30,319.47,32.17,0000 0000 0000 0000 000000
2013-09-24 01:01:33,0.06,0.14,0.00,25.97,30.27,32.48,5.78,29.46,1012.71,2037.99,3421.13,3302.16,3576.00,349.42,318.99,32.18,0000 0000 0000 0000 000000
2013-09-24 01:02:34,0.03,0.14,0.00,25.98,30.27,32.48,5.82,29.42,1012.71,2037.97,3421.06,3302.09,3576.00,349.39,318.95,32.18,0000 0000 0000 0000 000000
2013-09-24 01:03:34,0.02,0.14,0.00,25.98,30.27,32.50,6.02,29.38,1012.70,2037.97,3421.02,3302.05,3576.00,350.54,319.99,32.19,0000 0000 0000 0000 000000
2013-09-24 01:04:34,0.01,0.14,0.00,26.00,30.27,32.48,5.82,29.42,1012.70,2037.97,3421.01,3302.03,3576.00,349.21,318.72,32.20,0000 0000 0000 0000 000000
2013-09-24 01:05:35,0.00,0.14,0.00,26.02,30.28,32.47,5.91,29.25,1012.62,2037.97,3421.03,3302.04,3576.00,350.37,319.78,32.20,0000 0000 0000 0000 000000
2013-09-24 01:06:35,-0.01,0.14,0.00,26.02,30.29,32.48,5.81,29.29,1012.66,2037.97,3421.01,3302.03,3576.00,349.69,319.17,32.21,0000 0000 0000 0000 000000
2013-09-24 01:07:35,0.00,0.14,0.00,26.03,30.30,32.48,5.99,29.33,1012.65,2037.97,3421.00,3302.02,3576.00,350.96,320.29,32.21,0000 0000 0000 0000 000000
2013-09-24 01:08:36,0.00,0.14,0.00,26.03,30.30,32.51,5.94,29.25,1012.60,2037.94,3421.00,3302.01,3576.00,350.17,319.78,32.22,0000 0000 0000 0000 000000
2013-09-24 01:09:36,-0.02,0.14,0.00,26.05,30.30,32.50,5.92,29.33,1012.53,2037.95,3421.00,3302.02,3576.00,350.33,319.79,32.23,0000 0000 0000 0000 000000
2013-09-24 01:10:36,-0.00,0.14,0.00,26.04,30.30,32.49,5.90,29.21,1012.51,2037.93,3421.00,3302.01,3576.00,349.52,319.01,32.23,0000 0000 0000 0000 000000
2013-09-24 01:11:36,-0.01,0.14,0.00,26.04,30.30,32.50,5.82,29.46,1012.43,2037.91,3421.00,3302.00,3575.97,350.00,319.84,32.24,0000 0000 0000 0000 000000
2013-09-24 01:12:37,-0.03,0.14,0.00,26.03,30.30,32.51,6.10,29.63,1012.39,2037.89,3421.00,3302.00,3575.98,350.57,319.88,32.24,0000 0000 0000 0000 000000
2013-09-24 01:13:37,0.01,0.14,0.00,26.05,30.31,32.51,5.97,29.29,1012.37,2037.89,3421.00,3302.00,3575.97,349.71,319.32,32.25,0000 0000 0000 0000 000000
2013-09-24 01:14:37,-0.00,0.14,0.00,26.05,30.32,32.54,5.88,29.42,1012.37,2037.90,3421.00,3302.00,3575.95,351.07,320.07,32.26,0000 0000 0000 0000 000000
2013-09-24 01:15:37,0.01,0.14,0.00,26.05,30.32,32.52,5.82,29.33,1012.33,2037.94,3421.00,3302.00,3575.95,349.58,318.93,32.26,0000 0000 0000 0000 000000
2013-09-24 01:16:38,0.01,0.14,0.00,26.06,30.32,32.54,6.05,29.38,1012.28,2037.89,3420.99,3302.00,3575.88,350.12,319.39,32.27,0000 0000 0000 0000 000000
2013-09-24 01:17:38,0.00,0.14,0.00,26.07,30.32,32.54,6.02,29.38,1012.26,2037.82,3420.97,3302.00,3575.71,350.30,319.55,32.27,0000 0000 0000 0000 000000
2013-09-24 01:18:38,-0.04,0.14,0.00,26.05,30.32,32.57,6.08,29.33,1012.29,2037.80,3420.97,3301.99,3575.58,350.02,319.31,32.28,0000 0000 0000 0000 000000
2013-09-24 01:19:39,-0.03,0.14,0.00,26.05,30.33,32.56,5.90,29.38,1012.28,2037.78,3420.95,3301.97,3575.54,349.92,319.30,32.28,0000 0000 0000 0000 000000
2013-09-24 01:20:39,0.00,0.14,0.00,26.05,30.34,32.55,5.77,29.42,1012.27,2037.82,3420.95,3301.97,3575.51,349.44,318.84,32.29,0000 0000 0000 0000 000000
2013-09-24 01:21:39,0.04,0.14,0.00,26.06,30.35,32.55,6.09,29.33,1012.26,2037.80,3420.95,3301.97,3575.45,350.65,320.24,32.30,0000 0000 0000 0000 000000
2013-09-24 01:22:39,-0.00,0.14,0.00,26.06,30.35,32.54,5.92,29.21,1012.26,2037.72,3420.93,3301.98,3575.35,350.24,319.17,32.30,0000 0000 0000 0000 000000
2013-09-24 01:23:40,-0.04,0.14,0.00,26.07,30.35,32.53,5.80,29.17,1012.26,2037.67,3420.85,3301.98,3575.20,349.62,318.69,32.31,0000 0000 0000 0000 000000
2013-09-24 01:24:40,-0.03,0.14,0.00,26.07,30.35,32.56,6.03,29.33,1012.25,2037.66,3420.74,3301.98,3575.11,350.89,319.68,32.31,0000 0000 0000 0000 000000
2013-09-24 01:25:40,0.03,0.14,0.00,26.08,30.35,32.57,6.08,29.33,1012.24,2037.70,3420.73,3301.99,3575.09,349.20,318.52,32.32,0000 0000 0000 0000 000000
2013-09-24 01:26:41,0.01,0.14,0.00,26.09,30.36,32.59,5.88,29.25,1012.22,2037.54,3420.57,3301.95,3575.05,350.38,319.71,32.33,0000 0000 0000 0000 000000
2013-09-24 01:27:41,-0.09,0.14,0.00,26.09,30.37,32.58,5.96,29.38,1012.23,2037.40,3420.34,3301.88,3575.02,350.24,319.45,32.33,0000 0000 0000 0000 000000
2013-09-24 01:28:41,-0.02,0.14,0.00,26.11,30.37,32.58,5.98,29.33,1012.23,2037.43,3420.20,3301.80,3575.00,350.18,319.38,32.34,0000 0000 0000 0000 000000
2013-09-24 01:29:41,0.07,0.14,0.00,26.13,30.37,32.58,5.78,29.42,1012.22,2037.33,3420.09,3301.55,3575.00,349.73,318.57,32.34,0000 0000 0000 0000 000000
2013-09-24 01:30:42,-0.01,0.14,0.00,26.12,30.37,32.60,5.96,29.25,1012.24,2037.27,3420.06,3301.31,3575.00,350.26,319.44,32.35,0000 0000 0000 0000 000000
2013-09-24 01:31:42,-0.01,0.14,0.00,26.13,30.37,32.60,5.70,29.08,1012.23,2037.18,3420.03,3301.20,3575.00,349.14,318.38,32.36,0000 0000 0000 0000 000000
2013-09-24 01:32:42,-0.04,0.14,0.00,26.12,30.38,32.61,5.89,29.29,1012.24,2037.13,3420.01,3301.12,3575.00,349.85,318.99,32.36,0000 0000 0000 0000 000000
2013-09-24 01:33:42,-0.02,0.14,0.00,26.13,30.39,32.59,5.88,29.38,1012.23,2037.12,3420.00,3301.08,3575.00,350.33,319.50,32.37,0000 0000 0000 0000 000000
2013-09-24 01:34:43,-0.01,0.14,0.00,26.14,30.40,32.62,5.80,29.33,1012.23,2037.08,3420.00,3301.06,3575.00,349.29,318.54,32.37,0000 0000 0000 0000 000000
2013-09-24 01:35:43,-0.01,0.14,0.00,26.14,30.40,32.61,5.98,29.38,1012.22,2037.05,3420.00,3301.04,3575.00,350.25,319.41,32.38,0000 0000 0000 0000 000000
2013-09-24 01:36:43,-0.00,0.14,0.00,26.13,30.40,32.60,5.98,29.38,1012.23,2037.07,3420.00,3301.04,3574.99,350.05,318.92,32.38,0000 0000 0000 0000 000000
2013-09-24 01:37:43,-0.01,0.14,0.00,26.12,30.40,32.61,5.92,29.25,1012.22,2037.05,3420.00,3301.03,3574.98,350.09,319.28,32.39,0000 0000 0000 0000 000000
2013-09-24 01:38:44,-0.01,0.14,0.00,26.14,30.40,32.63,5.91,29.33,1012.23,2037.03,3420.00,3301.01,3574.95,349.57,318.75,32.40,0000 0000 0000 0000 000000
2013-09-24 01:39:44,0.01,0.14,0.00,26.14,30.41,32.63,5.78,29.38,1012.22,2037.06,3419.99,3301.01,3574.94,349.38,318.72,32.40,0000 0000 0000 0000 000000
2013-09-24 01:40:44,0.01,0.14,0.00,26.15,30.42,32.64,5.92,29.33,1012.22,2037.04,3419.98,3301.00,3574.93,350.19,319.40,32.41,0000 0000 0000 0000 000000
2013-09-24 01:41:45,0.00,0.14,0.00,26.17,30.42,32.65,5.88,29.50,1012.22,2037.02,3419.97,3301.00,3574.65,350.45,319.56,32.41,0000 0000 0000 0000 000000
2013-09-24 01:42:45,0.02,0.14,0.00,26.17,30.42,32.66,5.95,29.63,1012.22,2037.00,3419.90,3301.00,3574.42,350.54,319.80,32.42,0000 0000 0000 0000 000000
2013-09-24 01:43:45,0.02,0.14,0.00,26.18,30.42,32.66,5.79,29.75,1012.22,2037.00,3419.83,3301.00,3574.27,349.30,318.50,32.43,0000 0000 0000 0000 000000
2013-09-24 01:44:45,0.04,0.14,0.00,26.18,30.42,32.63,5.73,29.38,1012.22,2037.01,3419.82,3301.00,3574.16,350.76,319.33,32.43,0000 0000 0000 0000 000000
2013-09-24 01:45:46,0.01,0.14,0.00,26.15,30.43,32.65,6.02,29.42,1012.22,2037.01,3419.88,3301.00,3574.17,350.63,319.75,32.44,0000 0000 0000 0000 000000
2013-09-24 01:46:46,0.00,0.14,0.00,26.17,30.44,32.65,5.85,29.38,1012.22,2037.00,3419.88,3301.00,3574.22,349.70,318.87,32.44,0000 0000 0000 0000 000000
2013-09-24 01:47:46,-0.01,0.14,0.00,26.16,30.45,32.64,5.74,29.54,1012.22,2037.00,3419.76,3301.00,3574.14,349.90,318.64,32.45,0000 0000 0000 0000 000000
2013-09-24 01:48:46,0.02,0.14,0.00,26.15,30.45,32.66,5.87,29.29,1012.22,2037.00,3419.68,3301.00,3574.07,350.62,319.74,32.45,0000 0000 0000 0000 000000
2013-09-24 01:49:46,0.01,0.14,0.00,26.15,30.45,32.67,5.87,29.38,1012.22,2037.01,3419.48,3301.00,3574.03,350.51,320.01,32.46,0000 0000 0000 0000 000000
2013-09-24 01:50:47,0.04,0.14,0.00,26.17,30.45,32.68,5.81,29.38,1012.22,2037.00,3419.24,3301.00,3574.01,350.00,319.11,32.47,0000 0000 0000 0000 000000
2013-09-24 01:51:47,0.02,0.14,0.00,26.18,30.45,32.67,5.76,29.21,1012.22,2037.00,3419.10,3300.98,3574.01,348.82,318.15,32.47,0000 0000 0000 0000 000000
2013-09-24 01:52:47,0.01,0.14,0.00,26.19,30.47,32.67,6.01,29.21,1012.21,2037.00,3419.08,3300.95,3574.00,349.62,318.73,32.48,0000 0000 0000 0000 000000
2013-09-24 01:53:48,0.00,0.14,0.00,26.18,30.47,32.66,5.92,29.50,1012.21,2037.00,3419.07,3300.90,3574.00,350.25,319.36,32.48,0000 0000 0000 0000 000000
2013-09-24 01:54:48,0.02,0.14,0.00,26.19,30.47,32.68,5.87,29.17,1012.21,2037.00,3419.03,3300.83,3574.00,349.66,318.81,32.49,0000 0000 0000 0000 000000
2013-09-24 01:55:48,0.01,0.14,0.00,26.19,30.47,32.70,6.07,29.38,1012.22,2037.00,3419.01,3300.74,3574.00,350.82,319.87,32.50,0000 0000 0000 0000 000000
2013-09-24 01:56:48,0.02,0.14,0.00,26.20,30.47,32.70,5.96,29.33,1012.22,2037.00,3419.01,3300.76,3574.00,349.94,319.07,32.50,0000 0000 0000 0000 000000
2013-09-24 01:57:49,0.00,0.14,0.00,26.19,30.48,32.70,5.90,29.38,1012.22,2037.00,3419.01,3300.62,3574.00,350.40,319.03,32.51,0000 0000 0000 0000 000000
2013-09-24 01:58:49,0.05,0.14,0.00,26.20,30.49,32.69,5.87,29.33,1012.20,2037.00,3419.00,3300.29,3573.97,349.87,318.99,32.51,0000 0000 0000 0000 000000
2013-09-24 01:59:49,0.05,0.14,0.00,26.18,30.50,32.70,5.88,29.29,1012.18,2037.00,3419.00,3300.18,3573.98,350.25,319.15,32.52,0000 0000 0000 0000 000000
2013-09-24 02:00:49,0.01,0.14,0.00,26.18,30.50,32.71,5.75,29.17,1012.19,2037.00,3418.99,3300.11,3573.97,350.41,319.33,32.53,0000 0000 0000 0000 000000
2013-09-24 02:01:49,0.02,0.14,0.00,26.21,30.50,32.71,5.88,29.33,1012.20,2037.00,3418.99,3300.10,3573.97,350.21,319.07,32.53,0000 0000 0000 0000 000000
2013-09-24 02:02:50,0.00,0.14,0.00,26.20,30.50,32.72,5.93,29.33,1012.19,2037.00,3418.99,3300.10,3573.97,350.20,319.34,32.54,0000 0000 0000 0000 000000
2013-09-24 02:03:50,0.00,0.14,0.00,26.20,30.50,32.73,5.97,29.46,1012.17,2037.00,3418.98,3300.07,3573.95,350.09,319.18,32.54,0000 0000 0000 0000 000000
2013-09-24 02:04:50,0.01,0.14,0.00,26.22,30.51,32.73,6.02,29.33,1012.16,2037.00,3418.97,3300.04,3573.93,349.75,318.63,32.55,0000 0000 0000 0000 000000
2013-09-24 02:05:50,0.01,0.14,0.00,26.22,30.52,32.74,5.94,29.29,1012.20,2037.00,3418.94,3300.03,3573.85,350.46,319.51,32.55,0000 0000 0000 0000 000000
2013-09-24 02:06:51,0.01,0.14,0.00,26.25,30.52,32.75,5.77,29.33,1012.18,2037.00,3418.94,3300.02,3573.66,349.41,318.14,32.56,0000 0000 0000 0000 000000
2013-09-24 02:07:51,0.03,0.14,0.00,26.24,30.52,32.76,5.95,29.38,1012.18,2037.00,3418.93,3300.00,3573.42,350.49,319.51,32.57,0000 0000 0000 0000 000000
2013-09-24 02:08:51,0.03,0.14,0.00,26.25,30.52,32.77,5.69,29.21,1012.20,2036.99,3418.83,3300.00,3573.22,349.82,318.33,32.57,0000 0000 0000 0000 000000
2013-09-24 02:09:52,0.03,0.14,0.00,26.25,30.52,32.75,6.02,29.38,1012.19,2036.98,3418.72,3300.00,3573.13,351.07,319.89,32.58,0000 0000 0000 0000 000000
2013-09-24 02:10:52,0.01,0.14,0.00,26.25,30.53,32.75,5.90,29.38,1012.19,2036.98,3418.53,3300.00,3573.09,349.96,319.24,32.58,0000 0000 0000 0000 000000
2013-09-24 02:11:52,0.03,0.14,0.00,26.25,30.54,32.74,5.69,29.29,1012.20,2036.97,3418.26,3299.99,3573.05,349.47,318.33,32.59,0000 0000 0000 0000 000000
2013-09-24 02:12:52,0.03,0.14,0.00,26.24,30.55,32.76,5.91,29.29,1012.16,2036.95,3418.24,3299.99,3573.04,350.00,319.04,32.60,0000 0000 0000 0000 000000
2013-09-24 02:13:52,-0.01,0.14,0.00,26.26,30.55,32.76,5.86,29.21,1012.15,2036.93,3418.32,3299.99,3573.07,350.61,319.59,32.60,0000 0000 0000 0000 000000
2013-09-24 02:14:53,-0.02,0.14,0.00,26.27,30.55,32.78,5.95,29.29,1012.16,2036.96,3418.28,3299.99,3573.06,350.25,319.26,32.61,0000 0000 0000 0000 000000
2013-09-24 02:15:53,0.02,0.14,0.00,26.27,30.55,32.78,5.85,29.17,1012.11,2036.96,3418.16,3299.99,3573.02,349.77,318.80,32.61,0000 0000 0000 0000 000000
2013-09-24 02:16:53,0.01,0.14,0.00,26.25,30.55,32.79,5.89,29.29,1012.12,2036.98,3418.12,3299.98,3573.00,350.08,319.11,32.62,0000 0000 0000 0000 000000
2013-09-24 02:17:53,0.02,0.14,0.00,26.26,30.56,32.76,5.93,29.46,1012.08,2036.98,3418.07,3299.98,3573.00,350.80,319.73,32.62,0000 0000 0000 0000 000000
2013-09-24 02:18:54,0.00,0.14,0.00,26.27,30.57,32.78,5.89,29.25,1011.98,2036.95,3418.03,3299.99,3573.00,349.96,318.85,32.63,0000 0000 0000 0000 000000
2013-09-24 02:19:54,-0.01,0.14,0.00,26.29,30.57,32.77,5.84,29.17,1011.97,2036.95,3418.02,3299.97,3573.00,350.36,318.87,32.64,0000 0000 0000 0000 000000
2013-09-24 02:20:54,0.00,0.14,0.00,26.29,30.57,32.79,6.00,29.25,1011.94,2036.95,3418.00,3299.94,3573.00,350.80,319.47,32.64,0000 0000 0000 0000 000000
2013-09-24 02:21:54,0.00,0.14,0.00,26.28,30.57,32.79,5.92,29.29,1011.90,2036.94,3418.00,3299.92,3573.00,350.30,319.35,32.65,0000 0000 0000 0000 000000
2013-09-24 02:22:55,0.00,0.14,0.00,26.30,30.57,32.79,5.98,29.29,1011.83,2036.89,3418.00,3299.91,3572.97,349.75,318.46,32.65,0000 0000 0000 0000 000000
2013-09-24 02:23:55,-0.02,0.14,0.00,26.30,30.58,32.78,5.87,29.33,1011.84,2036.90,3418.00,3299.83,3572.98,350.18,319.05,32.66,0000 0000 0000 0000 000000
2013-09-24 02:24:55,0.04,0.14,0.00,26.31,30.60,32.82,5.89,29.21,1011.84,2036.78,3418.00,3299.59,3572.98,349.99,319.27,32.67,0000 0000 0000 0000 000000
2013-09-24 02:25:55,-0.04,0.14,0.00,26.31,30.60,32.83,5.75,29.17,1011.84,2036.68,3418.00,3299.45,3572.98,349.13,318.10,32.67,0000 0000 0000 0000 000000
2013-09-24 02:26:55,-0.07,0.14,0.00,26.31,30.60,32.82,5.92,29.21,1011.84,2036.57,3417.99,3299.22,3572.93,350.20,319.34,32.68,0000 0000 0000 0000 000000
2013-09-24 02:27:56,-0.05,0.14,0.00,26.32,30.60,32.81,5.87,29.21,1011.86,2036.57,3417.98,3299.11,3572.80,350.20,319.04,32.68,0000 0000 0000 0000 000000
2013-09-24 02:28:56,0.09,0.14,0.00,26.32,30.60,32.81,5.77,29.25,1011.84,2036.48,3417.94,3299.06,3572.62,348.97,317.47,32.69,0000 0000 0000 0000 000000
2013-09-24 02:29:56,-0.06,0.14,0.00,26.31,30.61,32.82,6.01,29.17,1011.86,2036.32,3417.93,3299.03,3572.45,350.43,319.27,32.69,0000 0000 0000 0000 000000
2013-09-24 02:30:56,-0.11,0.14,0.00,26.32,30.62,32.83,5.74,29.25,1011.82,2036.33,3417.90,3299.03,3572.34,348.78,317.80,32.70,0000 0000 0000 0000 000000
2013-09-24 02:31:56,0.09,0.14,0.00,26.33,30.62,32.84,5.92,29.42,1011.81,2036.41,3417.65,3299.02,3572.25,349.70,318.57,32.71,0000 0000 0000 0000 000000
2013-09-24 02:32:57,0.07,0.14,0.00,26.32,30.62,32.81,6.06,29.42,1011.80,2036.33,3417.30,3299.00,3572.11,350.65,319.58,32.71,0000 0000 0000 0000 000000
2013-09-24 02:33:57,0.00,0.14,0.00,26.35,30.62,32.84,6.03,29.42,1011.80,2036.18,3417.08,3299.00,3572.04,350.52,319.25,32.72,0000 0000 0000 0000 000000
2013-09-24 02:34:57,-0.08,0.14,0.00,26.36,30.62,32.84,6.04,29.25,1011.77,2036.14,3416.77,3298.85,3571.97,350.85,319.63,32.72,0000 0000 0000 0000 000000
2013-09-24 02:35:57,0.11,0.14,0.00,26.37,30.63,32.87,6.06,29.25,1011.76,2036.19,3416.31,3298.41,3571.61,350.30,319.08,32.73,0000 0000 0000 0000 000000